Location: Ch�tillon
(48.8024°N, 2.2935°E)
Time: 08:24:57
(UTC+00:00)

Cosmos 1697 Rocket - Visible Passes

Search period start: 25 May 2022 00:00
Search period end: 04 June 2022 00:00
Orbit: 831 x 844 km, 71.0° (Epoch: 24 May)

Date Brightness Start Highest point End Pass type
(mag) Time Alt. Az. Time Alt. Az. Time Alt. Az.
25 May 3.2 20:59:10 10° SW 21:04:47 64° WNW 21:10:26 10° NNE visible
25 May 5.5 22:46:21 10° WNW 22:49:56 17° NW 22:53:31 10° N visible
26 May 3.2 20:42:54 10° SW 20:48:33 68° WNW 20:54:14 10° NNE visible
26 May 5.5 22:29:55 10° WNW 22:33:38 17° NW 22:37:22 10° N visible
27 May 3.1 20:26:41 10° SW 20:32:20 72° WNW 20:38:01 10° NNE visible
27 May 5.6 22:13:30 10° W 22:17:21 18° NW 22:21:13 10° N visible
28 May 5.6 21:57:06 10° W 22:01:04 19° NW 22:05:03 10° N visible
29 May 5.6 21:40:42 10° W 21:44:47 20° NW 21:48:54 10° N visible
30 May 5.6 03:00:24 10° N 03:04:51 23° NE 03:09:16 10° E visible
30 May 5.6 21:24:18 10° W 21:28:31 21° NW 21:32:44 10° N visible
31 May 5.6 02:44:14 10° N 02:48:35 22° NE 02:52:53 10° E visible
31 May 5.5 21:07:55 10° W 21:12:14 22° NW 21:16:34 10° N visible
01 Jun 5.6 02:28:04 10° N 02:32:18 21° NE 02:36:30 10° E visible
01 Jun 5.5 20:51:32 10° W 20:55:58 23° NW 21:00:24 10° N visible
02 Jun 5.7 02:11:55 10° N 02:16:01 20° NE 02:20:07 10° E visible
02 Jun 5.5 20:35:10 10° W 20:39:42 24° NW 20:44:13 10° N visible
03 Jun 5.7 01:55:45 10° N 01:59:45 19° NE 02:03:42 10° E visible
03 Jun 5.5 20:18:48 10° W 20:23:25 25° NW 20:28:03 10° N visible
